Back to catalog

NIMBUS 2 DEB

AliveLEO
NORAD 28610·DEBRIS·🇺🇸 United States

Launched May 15, 1966 from Vandenberg Space Force Base

Loading…

Next Passes (next 24 hours)

TLE

FreshSource: Space-Track

Epoch: Sep 12, 2026, 13:32 UTC

1 28610U 66040Z   26255.56429797  .00001555  00000-0  20367-2 0  9998
2 28610 100.5024 355.6455 0079856 279.1028  92.9863 13.62102047638671

Track NIMBUS 2 DEB in real time with AllMySat

Download on the App Store